Вернуться в каталог

STARLINK-5407

АктивенСвязьVLEO
NORAD 54858·PAYLOAD·🇺🇸 United States

Запущен Dec 28, 2022 с Cape Canaveral Space Force Station

Loading…

Ближайшие Пролёты (ближайшие 24 часа)

TLE

СвежийSource: CelesTrak SupGP

Эпоха: Sep 14, 2026, 21:49 UTC

1 54858C 22177AQ  26257.90951389 -.00017853  00000+0 -64680-3 0  2574
2 54858  43.0008 132.7924 0001319 268.2972  11.7777 15.27578927    19

Отслеживайте STARLINK-5407 в реальном времени с AllMySat

Download on the App Store